Regional Weather Roundup
Issued by NWS

Home | Current Version | Previous Version | Graphics & Text | Print | Product List | Glossary On
Versions: 1 2 3 4 5 6 7 8 9 10 11 12 13 14 15 16 17 18 19 20 21 22 23 24 25 26 27 28 29 30 31 32 33 34 35 36 37 38 39 40 41 42 43 44 45 46 47 48 49 50
024
ASUS43 KBIS 192110
RWRND

NORTH DAKOTA REGIONAL WEATHER ROUNDUP
NATIONAL WEATHER SERVICE BISMARCK ND
400 PM CDT SAT AUG 19 2017

NOTE: "FAIR" INDICATES FEW OR NO CLOUDS BELOW 12,000 FEET WITH NO
SIGNIFICANT WEATHER AND/OR OBSTRUCTIONS TO VISIBILITY.


NDZ001>003-009>011-017-192200-
NORTHWEST NORTH DAKOTA

CITY           SKY/WX    TMP DP  RH WIND       PRES   REMARKS
WILLISTON      MOSUNNY   83  51  33 NW23G31   29.79R
MINOT          SUNNY     89  54  30 SW17      29.67F
MINOT AFB      SUNNY     90  53  27 W16G22    29.65F
$$

NDZ018>021-031>035-040>046-192200-
SOUTHWEST NORTH DAKOTA

CITY           SKY/WX    TMP DP  RH WIND       PRES   REMARKS
BISMARCK       MOSUNNY   85  64  49 SW7       29.74S
DICKINSON      MOSUNNY   89  44  20 W21       29.79S
GARRISON         N/A     85  55  35 W12       29.72S
HETTINGER ARPT CLOUDY    84  47  27 NW9       29.84S
$$

NDZ004>008-012>016-024-026-027-054-192200-
NORTHEAST NORTH DAKOTA

CITY           SKY/WX    TMP DP  RH WIND       PRES   REMARKS
GRAND FORKS    MOSUNNY   86  59  39 S16G24    29.73F
GRND FRKS AFB  SUNNY     84  59  41 S15G22    29.74F
DEVILS LAKE    SUNNY     84  61  45 S20G26    29.71F
$$

NDZ022-023-025-028>030-036>039-047>053-192200-
SOUTHEAST NORTH DAKOTA

CITY           SKY/WX    TMP DP  RH WIND       PRES   REMARKS
FARGO          SUNNY     82  62  50 S17G23    29.79F
JAMESTOWN      SUNNY     81  61  50 S18G29    29.76F
$$





USA.gov is the U.S. government's official web portal to all federal, state and local government web resources and services.